deb Ablestar 008

Debris
NORAD ID: 417 Int'l Des: 1961 OMI Owner: AFSSD Country: US
LEOCIRCULAR

关于 deb Ablestar 008

正在加载描述...

实时位置

正在加载3D地球...

即将过境

高度历史

Altitude vs Time

uPlot chart will show altitude changes over time

两行轨道根数

1 00417U 61015ES 25340.41010387 .00001592 00000-0 75793-3 0 9994
2 00417 66.7458 346.5158 0075522 243.5626 115.7705 14.20448430310113
Epoch: Dec 6, 2025 • Age: 26 hours

当前状态

高度 786.6 km
速度 7.49 km/s
星下点 -33.96°S, 79.31°W
类型 debris

大型星座

Loading constellations...